Location: Milano
(45.4642°N, 9.1900°E)
Time: 02:07:47
(UTC+02:00)

ISS - Pass Details

Date: 17 May 2021
Orbit: 417 x 422 km, 51.6° (Epoch: 14 June)

Event Time Altitude Azimuth Distance (km) Brightness Sun altitude
Rises 03:41:18 0° 297° (WNW) 2,373 0.0 -17.6°
Reaches altitude 10° 03:43:26 10° 292° (WNW) 1,507 -1.1 -17.4°
Maximum altitude 03:46:44 53° 215° (SW) 521 -3.7 -17.1°
Drops below altitude 10° 03:50:02 10° 137° (SE) 1,501 -1.1 -16.7°
Sets 03:52:09 0° 133° (SE) 2,362 0.0 -16.5°
